McVille, ND (58254)

7:42 AM CDT on July 10, 2014 (GMT -0500)
Grand Forks Air Force Base (KRDR) Elev 912 ft | 47.96 °N, 97.40 °W | Change Station

Current weather conditions updated 44 minutes ago

Clear
Clear
57 °F
Feels Like 57 °F
N
7
Wind Variable Wind from South

Today is forecast to be Much Warmer than yesterday.

Today
High -- | Low -- °F
--% Chance of Precip.
Yesterday
High -- | Low -- °F
Precip. -- in
5:45 AM 9:30 PM
Waxing Gibbous, 94% visible
Pressure 29.96 in
Visibility 10.0 miles
Clouds Clear
Dew Point 55 °F
Humidity 91%
Rainfall 0.00 in
Snow Depth Not available.
UV 1 out of 12
Pollen 4.70 out of 12
Air Quality Not available.
Flu Activity Sporadic
METAR KRDR 101158Z AUTO 18006KT 10SM CLR 14/13 A2994 RMK AO2 SLP143 T01410127 10142 20121 58005

More Conditions Fewer Conditions

Pressure 29.96 in
Visibility 10.0 miles
Clouds Clear
Dew Point 55 °F
Humidity 91%
Rainfall 0.00 in
Snow Depth Not available.
UV 1 out of 12
Pollen 4.70 out of 12
Air Quality Not available.
Flu Activity Sporadic
METAR KRDR 101158Z AUTO 18006KT 10SM CLR 14/13 A2994 RMK AO2 SLP143 T01410127 10142 20121 58005

More Conditions Fewer Conditions

10-Day Weather Forecast

Almanac

Astronomy

Jul. 10, 2014 Rise Set
Actual Time 5:45 AM CDT 9:30 PM CDT
Civil Twilight 5:05 AM CDT 10:10 PM CDT
Nautical Twilight 4:11 AM CDT 11:03 PM CDT
Astronomical Twilight 2:52 AM CDT 12:21 AM CDT
Moon 7:40 PM CDT 4:02 AM CDT
Length of Visible Light 17h 04m
Length of Day
15h 45m
Tomorrow will be 1m 34s shorter.
Waxing Gibbous, 94% of the Moon is Illuminated
Today
Waxing Gibbous
Jul 12
Full
Jul 18
Last Quarter
Jul 26
New
Aug 3
First Quarter

Today's Extremes

State Highs State Lows

Community

WunderPhotos

Upload Photos

1,732,119 photos uploaded!

Nearby

Snow Depth

Station Depth Elevation
No new snow has been reported.

Earthquake Activity

City Distance Mag. Time & Date
No recent earthquake activity has been reported nearby.
Minimum magnitude displayed is 2.5.

Coastal Water Temperatures

Place Temperature
No Stations Reporting

Nearby Weather Stations

There are no personal weather stations in this area.